Location: Makanda
(37.6176°N, 89.2090°W)
Time: 06:41:35
(UTC+00:00)

SJ-6B - Pass Details

Date: 23 September 2019
Orbit: 509 x 583 km, 97.6° (Epoch: 15 October)

Event Time Altitude Azimuth Distance (km) Brightness Sun altitude
Exits shadow 02:08:50 46° 253° (WSW) 777 3.8 -26.9°
Maximum altitude 02:08:59 47° 261° (W) 774 3.8 -26.9°
Drops below altitude 10° 02:12:56 10° 335° (NNW) 1,882 6.1 -27.6°
Sets 02:15:08 0° 342° (NNW) 2,774 7.0 -28.0°
